Time,TemperatureF,DewpointF,PressureIn,WindDirection,WindDirectionDegrees,WindSpeedMPH,WindSpeedGustMPH,Humidity,HourlyPrecipIn,Conditions,Clouds,dailyrainin,SoftwareType,DateUTC
2013-08-26 00:43:00,73.0,64.0,30.19,SSW,200,6.0,6.0,73,0.00,,,0.00,,2013-08-26 05:43:00,
2013-08-26 02:52:00,71.0,62.0,30.17,SSW,210,8.0,8.0,73,0.00,,,0.00,,2013-08-26 07:52:00,
2013-08-26 03:12:00,71.0,62.0,30.17,SSW,210,8.0,8.0,73,0.00,,,0.00,,2013-08-26 08:12:00,
2013-08-26 03:22:00,71.0,62.0,30.17,SSW,210,8.0,8.0,73,0.00,,,0.00,,2013-08-26 08:22:00,
2013-08-26 03:52:00,70.0,62.0,30.16,SSW,200,6.0,6.0,75,0.00,,,0.00,,2013-08-26 08:52:00,
2013-08-26 04:11:00,70.0,62.0,30.16,SSW,200,6.0,6.0,75,0.00,,,0.00,,2013-08-26 09:11:00,
2013-08-26 04:21:00,70.0,62.0,30.16,SSW,200,6.0,6.0,75,0.00,,,0.00,,2013-08-26 09:21:00,
2013-08-26 04:54:00,69.0,62.0,30.17,SSW,200,0.0,0.0,78,0.00,,,0.00,,2013-08-26 09:54:00,
2013-08-26 05:23:00,69.0,62.0,30.17,SSW,200,0.0,0.0,78,0.00,,,0.00,,2013-08-26 10:23:00,
2013-08-26 05:52:00,67.0,62.0,30.16,SSW,210,6.0,6.0,84,0.00,,,0.00,,2013-08-26 10:52:00,
2013-08-26 06:22:00,67.0,62.0,30.16,SSW,210,6.0,6.0,84,0.00,,,0.00,,2013-08-26 11:22:00,
2013-08-26 06:52:00,68.0,63.0,30.17,SSW,210,0.0,0.0,83,0.00,,,0.00,,2013-08-26 11:52:00,
2013-08-26 07:21:00,68.0,63.0,30.17,SSW,210,0.0,0.0,83,0.00,,,0.00,,2013-08-26 12:21:00,
2013-08-26 07:52:00,67.0,63.0,30.18,SW,230,3.0,3.0,87,0.00,,,0.00,,2013-08-26 12:52:00,
2013-08-26 08:21:00,67.0,63.0,30.18,SW,230,3.0,3.0,87,0.00,,,0.00,,2013-08-26 13:21:00,
2013-08-26 08:52:00,71.0,66.0,30.20,South,190,5.0,5.0,84,0.00,,,0.00,,2013-08-26 13:52:00,
2013-08-26 09:22:00,71.0,66.0,30.20,South,190,5.0,5.0,84,0.00,,,0.00,,2013-08-26 14:22:00,
2013-08-26 09:52:00,77.0,68.0,30.19,SSW,210,7.0,7.0,73,0.00,,,0.00,,2013-08-26 14:52:00,
2013-08-26 10:22:00,77.0,68.0,30.19,SSW,210,7.0,7.0,73,0.00,,,0.00,,2013-08-26 15:22:00,
2013-08-26 10:47:00,81.0,68.0,30.19,SW,230,6.0,7.0,64,0.00,,,0.00,,2013-08-26 15:47:00,
2013-08-26 10:59:00,81.0,68.0,30.19,SW,230,6.0,6.0,64,0.00,,,0.00,,2013-08-26 15:59:00,
2013-08-26 11:29:00,81.0,68.0,30.19,SW,230,6.0,6.0,64,0.00,,,0.00,,2013-08-26 16:29:00,
2013-08-26 11:59:00,85.0,69.0,30.18,WSW,250,7.0,7.0,59,0.00,,,0.00,,2013-08-26 16:59:00,
2013-08-26 12:24:00,85.0,69.0,30.18,WSW,250,7.0,7.0,59,0.00,,,0.00,,2013-08-26 17:24:00,
2013-08-26 12:53:00,89.0,68.0,30.16,SW,220,8.0,8.0,51,0.00,,,0.00,,2013-08-26 17:53:00,
2013-08-26 13:12:00,89.0,68.0,30.16,SW,220,8.0,8.0,51,0.00,,,0.00,,2013-08-26 18:12:00,
2013-08-26 13:21:00,89.0,68.0,30.16,SW,220,8.0,8.0,51,0.00,,,0.00,,2013-08-26 18:21:00,
2013-08-26 13:52:00,91.0,70.0,30.14,SW,230,9.0,9.0,50,0.00,,,0.00,,2013-08-26 18:52:00,
2013-08-26 14:11:00,91.0,70.0,30.14,SW,230,9.0,9.0,50,0.00,,,0.00,,2013-08-26 19:11:00,
2013-08-26 14:22:00,91.0,70.0,30.14,SW,230,9.0,9.0,50,0.00,,,0.00,,2013-08-26 19:22:00,
2013-08-26 14:52:00,91.0,67.0,30.12,SW,230,9.0,9.0,46,0.00,,,0.00,,2013-08-26 19:52:00,
2013-08-26 15:11:00,91.0,67.0,30.12,SW,230,9.0,9.0,46,0.00,,,0.00,,2013-08-26 20:11:00,
2013-08-26 15:22:00,91.0,67.0,30.12,SW,230,9.0,9.0,46,0.00,,,0.00,,2013-08-26 20:22:00,
2013-08-26 15:52:00,91.0,69.0,30.10,SW,230,9.0,9.0,48,0.00,,,0.00,,2013-08-26 20:52:00,
2013-08-26 16:22:00,91.0,69.0,30.10,SW,230,9.0,9.0,48,0.00,,,0.00,,2013-08-26 21:22:00,
2013-08-26 16:55:00,91.0,69.0,30.08,SW,230,8.0,8.0,48,0.00,,,0.00,,2013-08-26 21:55:00,
2013-08-26 17:26:00,91.0,69.0,30.08,SW,230,8.0,8.0,48,0.00,,,0.00,,2013-08-26 22:26:00,
2013-08-26 17:53:00,91.0,69.0,30.07,SSW,210,10.0,10.0,48,0.00,,,0.00,,2013-08-26 22:53:00,
2013-08-26 18:22:00,91.0,69.0,30.07,SSW,210,10.0,10.0,48,0.00,,,0.00,,2013-08-26 23:22:00,
2013-08-26 18:52:00,90.0,70.0,30.06,SW,230,13.0,13.0,52,0.00,,,0.00,,2013-08-26 23:52:00,
2013-08-26 19:21:00,90.0,70.0,30.06,SW,230,13.0,13.0,52,0.00,,,0.00,,2013-08-27 00:21:00,
2013-08-26 19:52:00,88.0,70.0,30.05,SW,220,8.0,8.0,55,0.00,,,0.00,,2013-08-27 00:52:00,
2013-08-26 20:52:00,83.0,71.0,30.04,South,190,7.0,7.0,67,0.00,,,0.00,,2013-08-27 01:52:00,
2013-08-26 23:47:00,79.0,71.0,30.05,SSW,200,6.0,9.0,76,0.00,,,0.00,,2013-08-27 04:47:00,
2013-08-26 23:54:00,79.0,71.0,30.05,SSW,200,6.0,6.0,76,0.00,,,0.00,,2013-08-27 04:54:00,